sat.trackr.live / text

‹ back to catalog

STARLINK-5833

NORAD 55773 · 2023-028AJ

PAYLOAD ACTIVE UNKNOWN

§ Identity

Operator
Country
US
Launch date
2023-03-03
Launch site
AFWTR
Launch vehicle
Mass (kg)
RCS (m²)

Purposes: comms

External: N2YO · Heavens-Above · Gunter

§ Orbital elements

Epoch: 2026-05-25T01:55:38.102304Z

Period
96.11 min
Inclination
69.9999°
Eccentricity
0.0002587
Mean motion
14.98329458 rev/d
Perigee alt
570.3 km
Apogee alt
573.9 km
Semi-major
6,950.2 km
B*
-1.3392e-5
RAAN
31.9324°
Arg perigee
270.1795°
Mean anomaly
89.9067°
Rev number
17,797

§ Raw data

STARLINK-58331 55773U 23028AJ  26145.08030211 -.00000253  00000+0 -13392-4 0  99982 55773  69.9999  31.9324 0002587 270.1795  89.9067 14.98329458177978

JSON: /api/v1/satellites/55773 · /tle

For live sub-satellite position, see the globe view (requires WebGL).

§ Visibility from observer

Set your observer location to see the next 7 days of passes ≥ 10°. The values pass through the URL so the page stays shareable.

No JS? Fill the form by hand. The geolocation button needs JavaScript.